www.pogodaiklimat.ru

Погода и климат >> Архив погоды >> Россия >> Саратовская область >> Маркс


ПОГОДА в Маркс

  • Прогноз погоды в Маркс
  • Монитор погоды в Маркс

АРХИВ ПОГОДЫ в Маркс

Время (UTC), дата Ветер
(напр.,м/с)
 
Видим.   Явления Облачность Т
(С)
Тd
(С)
f
(%)
Тe
(С)
Тes
(С)
Комфортность P
(гПа)
Po
(гПа)
Тmin
(С)
Tmax
(С)
R
(мм)
R24
(мм)
S
(см)
12 15.01 ЮЗ 5
{12}
10 км слаб. снег {метель} 10/10 210 м
[Frnb Ns]
-0.0 -0.8 94 -6 -6 1007.0 1003.1
15 15.01 Ю 4 10 км {снег, метель} 10/10 240 м
[St]
+0.8 -0.4 92 -5 -5 1007.7 1003.7 +0.8 3
18 15.01 Ю 4
{10}
10 км {снег} 10/10 150 м
[St]
+0.5 -0.4 94 -5 -5 1008.1 1004.2
21 15.01 Ю 4 10 км 10/10 180 м
[St]
+0.3 -1.0 91 -5 -5 1007.6 1003.6
00 16.01 Ю 4 10 км 10/10 150 м
[St]
-0.3 -1.3 93 -6 -6 1006.9 1002.9
03 16.01 ЮВ 4 10 км 10/10 120 м
[St]
-0.4 -1.4 93 -6 -6 1004.2 1000.3 -0.8 54
06 16.01 ЮВ 4
{10}
10 км 10/10 180 м
[St]
-1.8 -2.5 95 -8 -8 1002.8 998.9 -1.8
09 16.01 Ю 4
{11}
10 км слаб. переохл. морось (гололёд) [диам. гололёда мм] 10/10 180 м
[St]
-2.9 -4.1 91 -9 -9 1000.8 996.8
12 16.01 Ю 5-10
{12}
10 км слаб. снег {морось} 10/10 180 м
[Frnb Ns]
-1.6 -2.5 94 -8 -8 998.7 994.7
15 16.01 Ю 7-12
{13}
5000 м слаб. морось {дождь} [диам. гололёда мм] 10/10 180 м
[St]
+0.7 0.0 95 -6 -6 998.1 994.2 +0.7 2
18 16.01 З 5
{12}
10 км {снег, дождь} 10/10 150 м
[St]
-0.8 -2.4 89 -7 -7 1001.0 997.1
21 16.01 З 2
{13}
10 км 10/10 300 м
[St]
-4.1 -6.1 86 -8 -8 1005.6 1001.6
00 17.01 ЮЗ 2 10 км 3/0
[Ac trans]
-7.8 -8.7 93 -12 -12 1008.0 1003.9
03 17.01 З 1 10 км 10/10 330 м
[St]
-9.0 -10.2 91 -11 -11 1010.6 1006.5 -9.9 0.0 54
06 17.01 З 2 50 км 10/0
[Ac und]
-6.2 -7.8 88 -11 -10 1013.2 1009.1
09 17.01 З 4 50 км 8/0
[Ac trans]
-5.2 -8.4 78 -12 -11 1014.9 1010.8
12 17.01 З 1 50 км ясно -4.8 -9.2 71 -7 -6 1015.7 1011.6
15 17.01 Ю 2 20 км 4/0
[Ac trans]
-10.6 -12.4 87 -15 -15 1017.4 1013.2 -4.6
18 17.01 З 2 10 км ясно -12.9 -13.8 93 -18 -18 1018.4 1014.1
21 17.01 ЮЗ 1 5000 м дымка 10/0
[As trans]
-13.7 -14.7 92 -16 -16 1019.1 1014.9
00 18.01 ЮЗ 2 5000 м дымка [диам. изморози мм] 10/0
[As trans]
-13.4 -14.5 91 -18 -18 1018.0 1013.7
03 18.01 ЮЗ 2 10 км [диам. изморози мм] 10/0
[Ac As]
-13.2 -14.4 91 -18 -18 1017.9 1013.7 -14.7 54
06 18.01 ЮЗ 3 20 км [диам. изморози мм] 9/3 1000 м
[Sc Ac trans Ci fib]
-11.5 -12.8 90 -17 -17 1016.7 1012.5
09 18.01 ЮЗ 5 20 км 9/0
[Ac trans Ci fib]
-6.1 -8.6 82 -13 -13 1015.8 1011.7
12 18.01 З 3 10 км 10/0
[Ac und]
-3.7 -5.9 85 -9 -9 1015.5 1011.5
15 18.01 З 2 10 км 10/10 360 м
[St]
-3.3 -4.5 91 -7 -7 1015.8 1011.8 -3.3
18 18.01 ЮЗ 3 10 км 10/10 270 м
[St]
-2.8 -3.9 92 -8 -8 1015.8 1011.8
21 18.01 Ю 2 10 км 10/10 300 м
[St]
-2.5 -3.3 94 -7 -7 1015.2 1011.2
00 19.01 ЮЗ 2 10 км 10/10 240 м
[St]
-1.7 -3.1 90 -6 -6 1014.1 1010.1
03 19.01 ЮЗ 2 10 км 10/10 240 м
[St]
-0.9 -1.7 94 -5 -5 1012.9 1008.9 -3.3 54
06 19.01 ЮЗ 2 10 км 10/10 330 м
[St]
+0.2 -0.6 94 -4 -4 1012.8 1008.8
09 19.01 З 3 10 км 10/10 300 м
[St]
+1.7 +0.1 89 -3 -3 1012.4 1008.4
12 19.01 ЮЗ 3 10 км 10/10 300 м
[St]
+1.1 +0.2 94 -4 -4 1011.8 1007.8
15 19.01 ЮЗ 2 10 км 10/10 240 м
[St]
+1.0 +0.2 94 -3 -3 1011.3 1007.4 +1.7
18 19.01 З 3 5000 м слаб. морось 10/10 150 м
[St]
+0.7 -0.2 94 -4 -4 1011.1 1007.1
21 19.01 СЗ 5 10 км {морось} 10/10 330 м
[St]
-0.0 -1.5 90 -6 -6 1013.0 1009.0
00 20.01 СЗ 3
{10}
20 км {морось} ясно -5.5 -7.9 83 -11 -11 1015.6 1011.5
03 20.01 З 3 20 км ясно -8.7 -10.8 85 -15 -15 1017.8 1013.6 -8.7 0.0 52
06 20.01 З 3 20 км ясно -9.5 -11.7 84 -15 -15 1019.9 1015.7 -9.6
09 20.01 З 4 50 км ясно -7.3 -10.5 78 -14 -12 1021.7 1017.5
12 20.01 З 2 50 км ясно -6.2 -10.2 73 -10 -10 1022.6 1018.5
15 20.01 З 2 20 км ясно -10.0 -11.9 86 -15 -15 1023.4 1019.3 -6.0
18 20.01 ЮЗ 1 20 км ясно -14.2 -15.1 93 -17 -17 1023.8 1019.5
21 20.01 З 2 5000 м дымка [диам. изморози мм] ясно -11.9 -12.7 94 -16 -16 1024.1 1019.9
00 21.01 ЮЗ 2 5000 м дымка [диам. изморози мм] ясно -9.7 -11.0 90 -14 -14 1023.2 1019.1
03 21.01 ЮЗ 2 5000 м [диам. изморози мм] 10/10 210 м
[St]
-11.7 -12.7 92 -16 -16 1022.4 1018.2 -14.5 52
06 21.01 Ю 1 10 км [диам. изморози мм] 10/0
[Ac und]
-12.1 -13.1 92 -14 -14 1021.2 1017.0
09 21.01 Ю 1 10 км [диам. изморози мм] 10/0
[As trans]
-9.2 -9.9 95 -12 -11 1019.3 1015.2
12 21.01 Ю 4 2000 м снег 10/10 240 м
[Frnb Ns]
-7.2 -8.5 90 -14 -14 1014.9 1010.8
15 21.01 Ю 3 2000 м снег 10/10 120 м
[Frnb Ns]
-6.8 -7.9 92 -13 -13 1012.0 1007.9 -6.8 4
18 21.01 штиль 0 2000 м снег 10/10 120 м
[Frnb Ns]
-5.9 -6.9 93 -7 -7 1010.3 1006.2
21 21.01 СЗ 3 10 км {снег} 9/0
[Ac cast Ci]
-7.7 -8.4 95 -14 -14 1011.3 1007.2
00 22.01 З 1 10 км {снег} 10/0
[As trans]
-9.0 -10.0 92 -11 -11 1012.9 1008.8
03 22.01 З 2 20 км 9/0
[Ac trans]
-8.4 -10.0 88 -13 -13 1014.4 1010.3 -9.5 3 58
06 22.01 З 2 20 км ясно -12.3 -13.4 91 -17 -16 1016.4 1012.2 -12.7
09 22.01 З 3 50 км ясно -9.4 -12.6 77 -15 -13 1017.7 1013.5

 

Местоположение метеостанции Маркс (Саратовская область, Россия): широта 51.70 долгота 46.73 высота над уровнем моря 29 м.

В архиве по умолчанию представлена погода в Маркс за последнюю неделю. Архивные данные за месяц целиком и за предыдущие месяцы, начиная с января 2011 года, Вы можете получить, выбрав интересующий диапазон дат из раскрывающегося списка и нажав кнопку "Ввод!".


*Определитесь, кто Вы:
робот инопланетянин человек

Внимание! Время в таблицах - всемирное. Для получения местного времени необходимо прибавить поправку, которая равна 4 ч.

Смотрите также архив погоды в соседних городах и на ближайших метеорологических станциях:

Погода в Саратове (Саратовская область, Россия) (50 км)
Погода в Саратове ЮВ (Саратовская область, Россия) (52 км)
Погода в Карабулаке (Саратовская область, Россия) (74 км)
Погода в Балаково (Саратовская область, Россия) (83 км)
Погода в Красном Куте (Саратовская область, Россия) (85 км)
Погода в Октябрьском Городке (Саратовская область, Россия) (89 км)
Погода в Петровске (Саратовская область, Россия) (112 км)
Погода в Ершове (Саратовская область, Россия) (115 км)
Погода в Сплавнухе (Саратовская область, Россия) (117 км)
Погода в Аткарске (Саратовская область, Россия) (118 км)

Пояснения к столбцам:

Ветер - указаны скорость ветра в м/с - средняя за 10 мин, порывы в срок и между сроками (в фигурных скобках) и направление, откуда дует ветер: С - северный, СВ - северо-восточный, В - восточный, ЮВ - юго-восточный, Ю - южный, ЮЗ - юго-западный, З - западный, СЗ - северо-западный.
Видимость - горизонтальная дальность видимости в метрах или километрах. При видимости от 1 до 10 км при отсутствии осадков обычно наблюдается дымка, при ухудшении видимости до 1 км и менее - туман. В сухую погоду видимость может ухудшаться дымом, пылью или мглою.
Явления - указаны атмосферные явления, наблюдавшиеся в срок или в последний час перед сроком; фигурными скобками обозначены явления, наблюдавшиеся между сроками (за 1-3 часа до срока); квадратными скобками обозначены град или гололедные отложения с указанием их диаметра в мм.
Облачность - указаны через наклонную черту общая и нижняя облачность в баллах и высота нижней границы облаков в метрах; квадратными скобками обозначены формы облаков: Ci - перистые, Cs - перисто-слоистые, Cc - перисто-кучевые, Ac - высококучевые, As - высокослоистые, Sc - слоисто-кучевые, Ns - слоисто-дождевые, Cu - кучевые, Cb - кучево-дождевые. Подробнее классификацию облаков см. в Атласе облаков (PDF).
T - Температура воздуха - температура, измеренная на высоте 2 м над землей.
Td - Температура точки росы - температура, при понижении до которой содержащийся в воздухе водяной пар достигнет насыщения.
f - Относительная влажность воздуха - влажноcть воздуха, измеренная на высоте 2 м над землей.
Te - Эффективная температура - температура, которую ощущает одетый по сезону человек в тени. Характеристика душности погоды. При расчете учитывается влияние влажности воздуха и скорости ветра на теплоощущения человека.
Tes - Эффективная температура на солнце - температура, которую ощущает человек, с поправкой на солнечный нагрев. Характеристика знойности погоды. Зависит от высоты солнца над горизонтом, облачности и скорости ветра. Ночью, в пасмурную погоду, а также при ветре 12 м/с и более поправка равна нулю.
P - Атмосферное давление - приведенное к уровню моря атмосферное давление.
Po - Атмосферное давление - измеренное на уровне метеостанции атмосферное давление.
Tmin - Минимальная температура - минимум температуры воздуха на высоте 2 м над землей.
Tmax - Максимальная температура - максимум температуры воздуха на высоте 2 м над землей.
R - Количество осадков - Количество выпавших осадков за период времени, мм. При наведении курсора мыши на число - период времени, за который выпало указанное количество осадков.
R24 - Количество осадков - Количество выпавших осадков за 24 часа, мм.
S - Снежный покров - Высота снежного покрова, см. При наведении курсора мыши на число - состояние снежного покрова и степень покрытия местности в баллах.